Location: *
(51.1248°S, 108.4023°W)
Time: 04:33:02
(UTC+00:00)

ARGOS - Visible Passes

Search period start: 17 October 2021 00:00
Search period end: 27 October 2021 00:00
Orbit: 820 x 834 km, 98.4° (Epoch: 16 October)

Date Brightness Start Highest point End Pass type
(mag) Time Alt. Az. Time Alt. Az. Time Alt. Az.
17 Oct 3.6 03:11:23 10° S 03:16:49 68° WSW 03:22:10 10° NNW visible
17 Oct 6.1 04:53:12 10° SSW 04:56:09 15° SW 04:59:04 10° W visible
17 Oct 6.4 11:23:38 10° ESE 11:25:47 12° SE 11:27:56 10° SSE visible
18 Oct 3.2 02:52:41 10° SSE 02:58:11 89° ENE 03:03:36 10° NNW visible
18 Oct 5.8 04:34:00 10° S 04:37:46 19° SW 04:41:31 10° W visible
19 Oct 3.2 02:34:03 10° SSE 02:39:30 65° ENE 02:44:52 10° N visible
19 Oct 5.4 04:14:59 10° S 04:19:21 25° WSW 04:23:42 10° WNW visible
20 Oct 5.0 03:56:04 10° S 04:00:53 33° WSW 04:05:40 10° NW visible
21 Oct 4.4 03:37:13 10° S 03:42:21 44° WSW 03:47:28 10° NW visible
21 Oct 6.5 05:21:09 10° SW 05:21:20 10° SW 05:21:31 10° SW visible
22 Oct 3.8 03:18:26 10° S 03:23:48 60° WSW 03:29:06 10° NNW visible
22 Oct 6.2 05:00:32 10° SSW 05:03:01 13° SW 05:05:30 10° WSW visible
23 Oct 3.3 02:59:43 10° SSE 03:05:11 81° WSW 03:10:36 10° NNW visible
23 Oct 6.0 04:41:13 10° SSW 04:44:40 17° SW 04:48:06 10° W visible
23 Oct 6.7 11:13:21 10° SE 11:14:21 10° SE 11:15:20 10° SE visible
24 Oct 3.2 02:41:03 10° SSE 02:46:31 75° ENE 02:51:55 10° N visible
24 Oct 5.6 04:22:08 10° S 04:26:16 23° WSW 04:30:23 10° WNW visible
25 Oct 5.2 04:03:10 10° S 04:07:49 30° WSW 04:12:26 10° WNW visible
26 Oct 4.7 03:44:17 10° S 03:49:19 39° WSW 03:54:18 10° NW visible
